Simultaneous Nadir Overpasses (SNOs) Predictions

Prediction of SNOs between GOES-16 and NOAA-19 Satellite Orbit:

Table of predicted SNOs for the next 14.0 days since TLE Epoch: 7/25/2020
Index Date Time (GOES-16) GOES-16 Lat,Lon NOAA-19 Lat,Lon Distance(km) Time Diff (sec)
1 07/25/2020 10:54:51 -0.05, -75.20 -0.36, -73.93 145.53 80
2 07/26/2020 10:43:10 -0.05, -75.20 -1.01, -71.07 471.50 80
3 07/27/2020 23:18:31 0.05, -75.19 -0.81, -78.89 422.04 80
4 07/28/2020 23:06:49 0.05, -75.20 -0.14, -76.03 95.68 80
5 07/29/2020 22:55:08 0.05, -75.20 0.52, -73.18 230.75 80
6 08/01/2020 11:16:07 -0.06, -75.22 0.59, -78.14 332.84 80
7 08/02/2020 11:04:25 -0.07, -75.23 -0.06, -75.29 6.17 80
8 08/03/2020 10:50:04 -0.07, -75.24 -0.72, -72.43 320.85 80
9 08/05/2020 23:13:43 0.08, -75.26 -0.40, -77.40 242.79 80
10 08/06/2020 22:59:21 0.08, -75.28 0.27, -74.54 85.10 80
11 08/07/2020 22:47:40 0.08, -75.30 0.94, -71.69 413.10 80
